Wetterdaten: Woche 04.05.26 - 10.05.26 (KW19)
Datum Zeit Temperatur Temp. +5 cm Temp. -10 cm Feuchte A. Luftdruck Regen Wind Richtung Zeit Sonne UV-I Solarstrahlg Taupunkt Windchill Windböen
04.05.2026 00:00 19,8 °C 16,2 °C 13,4 °C 49 % 1011,4 hPa 0,0 l/m² 4,9 km/h (1 Bft) NW 0,00 h 0,0 UV-I 0 W/m² 8,7 °C 19,8 °C 9,3 km/h (2 Bft)
04.05.2026 01:00 18,4 °C 14,5 °C 13,3 °C 54 % 1011,8 hPa 0,0 l/m² 4,8 km/h (1 Bft) N 0,00 h 0,0 UV-I 0 W/m² 8,9 °C 18,4 °C 8,4 km/h (2 Bft)
04.05.2026 02:00 17,6 °C 13,4 °C 13,3 °C 57 % 1011,9 hPa 0,0 l/m² 2,5 km/h (1 Bft) N-NW 0,00 h 0,0 UV-I 0 W/m² 8,9 °C 17,6 °C 5,6 km/h (2 Bft)
04.05.2026 03:00 16,4 °C 12,8 °C 13,3 °C 63 % 1012,1 hPa 0,0 l/m² 2,6 km/h (1 Bft) N-NW 0,00 h 0,0 UV-I 0 W/m² 9,3 °C 16,4 °C 5,2 km/h (1 Bft)
04.05.2026 04:00 14,6 °C 12,0 °C 13,3 °C 75 % 1012,2 hPa 0,2 l/m² 0,9 km/h (0 Bft) W 0,00 h 0,0 UV-I 0 W/m² 10,3 °C 14,6 °C 2,2 km/h (1 Bft)
04.05.2026 05:00 14,1 °C 11,8 °C 13,1 °C 78 % 1012,2 hPa 0,2 l/m² 3,2 km/h (1 Bft) W-SW 0,17 h 0,0 UV-I 17 W/m² 10,4 °C 14,1 °C 5,5 km/h (2 Bft)
04.05.2026 06:00 13,8 °C 12,4 °C 13,0 °C 82 % 1012,3 hPa 0,0 l/m² 5,7 km/h (2 Bft) W-SW 0,77 h 0,0 UV-I 72 W/m² 10,7 °C 13,8 °C 8,8 km/h (2 Bft)
04.05.2026 07:00 15,0 °C 14,7 °C 12,8 °C 78 % 1012,7 hPa 0,0 l/m² 3,7 km/h (1 Bft) W 0,73 h 0,5 UV-I 164 W/m² 11,2 °C 15,0 °C 6,5 km/h (2 Bft)
04.05.2026 08:00 16,6 °C 15,3 °C 12,9 °C 72 % 1013,2 hPa 0,0 l/m² 4,8 km/h (1 Bft) W 0,53 h 0,8 UV-I 268 W/m² 11,6 °C 16,6 °C 8,2 km/h (2 Bft)
04.05.2026 09:00 17,6 °C 19,3 °C 13,0 °C 70 % 1013,5 hPa 0,0 l/m² 4,7 km/h (1 Bft) W 0,63 h 1,3 UV-I 372 W/m² 12,0 °C 17,6 °C 8,0 km/h (2 Bft)
04.05.2026 10:00 19,1 °C 23,0 °C 13,2 °C 61 % 1013,6 hPa 0,0 l/m² 4,2 km/h (1 Bft) NW 1,00 h 2,0 UV-I 480 W/m² 11,4 °C 19,1 °C 7,8 km/h (2 Bft)
04.05.2026 11:00 20,3 °C 25,5 °C 13,3 °C 57 % 1013,7 hPa 0,0 l/m² 5,7 km/h (2 Bft) W 0,83 h 3,1 UV-I 648 W/m² 11,6 °C 20,3 °C 10,1 km/h (2 Bft)
04.05.2026 12:00 21,5 °C 28,6 °C 13,8 °C 53 % 1013,3 hPa 0,0 l/m² 7,0 km/h (2 Bft) N-NW 0,63 h 3,6 UV-I 678 W/m² 11,5 °C 21,5 °C 12,1 km/h (2 Bft)
04.05.2026 13:00 21,9 °C 30,3 °C 14,1 °C 52 % 1012,7 hPa 0,0 l/m² 6,0 km/h (2 Bft) W-NW 0,60 h 3,3 UV-I 621 W/m² 11,5 °C 21,9 °C 10,5 km/h (2 Bft)
04.05.2026 14:00 22,0 °C 28,3 °C 14,4 °C 52 % 1012,6 hPa 0,0 l/m² 6,2 km/h (2 Bft) W-NW 0,63 h 2,7 UV-I 506 W/m² 11,6 °C 22,0 °C 10,8 km/h (2 Bft)
04.05.2026 15:00 22,3 °C 30,7 °C 14,5 °C 52 % 1012,4 hPa 0,0 l/m² 5,4 km/h (1 Bft) W-NW 0,80 h 2,4 UV-I 530 W/m² 12,0 °C 22,3 °C 9,9 km/h (2 Bft)
04.05.2026 16:00 22,9 °C 31,6 °C 14,9 °C 51 % 1012,0 hPa 0,0 l/m² 5,6 km/h (2 Bft) N-NW 0,93 h 1,7 UV-I 499 W/m² 12,3 °C 22,9 °C 9,8 km/h (2 Bft)
04.05.2026 17:00 22,6 °C 25,3 °C 15,0 °C 51 % 1011,7 hPa 0,0 l/m² 4,0 km/h (1 Bft) N 0,87 h 1,0 UV-I 327 W/m² 12,0 °C 22,6 °C 7,4 km/h (2 Bft)
04.05.2026 18:00 22,1 °C 23,0 °C 15,0 °C 53 % 1011,3 hPa 0,2 l/m² 2,4 km/h (1 Bft) N-NW 0,67 h 0,6 UV-I 180 W/m² 11,9 °C 22,1 °C 4,6 km/h (1 Bft)
04.05.2026 19:00 21,2 °C 18,9 °C 15,0 °C 56 % 1011,3 hPa 0,0 l/m² 1,2 km/h (1 Bft) W 0,83 h 0,0 UV-I 99 W/m² 11,9 °C 21,2 °C 2,8 km/h (1 Bft)
04.05.2026 20:00 19,4 °C 15,2 °C 14,9 °C 63 % 1011,4 hPa 0,0 l/m² 0,2 km/h (0 Bft) W-NW 0,47 h 0,0 UV-I 44 W/m² 12,1 °C 19,4 °C 0,5 km/h (0 Bft)
04.05.2026 21:00 17,6 °C 13,5 °C 14,5 °C 72 % 1011,6 hPa 0,0 l/m² 0,1 km/h (0 Bft) S-SW 0,00 h 0,0 UV-I 0 W/m² 12,4 °C 17,6 °C 0,5 km/h (0 Bft)
04.05.2026 22:00 16,8 °C 13,5 °C 14,4 °C 75 % 1011,9 hPa 0,0 l/m² 0,3 km/h (0 Bft) O-SO 0,00 h 0,0 UV-I 0 W/m² 12,3 °C 16,8 °C 0,6 km/h (0 Bft)
04.05.2026 23:00 17,1 °C 14,8 °C 14,4 °C 73 % 1012,3 hPa 0,0 l/m² 4,9 km/h (1 Bft) NW 0,00 h 0,0 UV-I 0 W/m² 12,2 °C 17,1 °C 9,0 km/h (2 Bft)
05.05.2026 00:00 16,3 °C 14,5 °C 14,2 °C 77 % 1012,1 hPa 0,0 l/m² 4,2 km/h (1 Bft) NW 0,00 h 0,0 UV-I 0 W/m² 12,3 °C 16,3 °C 8,0 km/h (2 Bft)
05.05.2026 01:00 15,5 °C 14,0 °C 14,0 °C 82 % 1011,7 hPa 0,0 l/m² 5,4 km/h (1 Bft) N 0,00 h 0,0 UV-I 0 W/m² 12,4 °C 15,5 °C 9,9 km/h (2 Bft)
05.05.2026 02:00 14,9 °C 13,5 °C 13,9 °C 84 % 1011,2 hPa 0,0 l/m² 3,6 km/h (1 Bft) N-NO 0,00 h 0,0 UV-I 0 W/m² 12,1 °C 14,9 °C 6,6 km/h (2 Bft)
05.05.2026 03:00 14,5 °C 13,0 °C 13,9 °C 85 % 1010,9 hPa 0,0 l/m² 1,9 km/h (1 Bft) N-NW 0,00 h 0,0 UV-I 0 W/m² 12,0 °C 14,5 °C 3,6 km/h (1 Bft)
05.05.2026 04:00 14,0 °C 12,7 °C 13,9 °C 86 % 1010,6 hPa 0,0 l/m² 3,5 km/h (1 Bft) N-NW 0,00 h 0,0 UV-I 0 W/m² 11,7 °C 14,0 °C 6,6 km/h (2 Bft)
05.05.2026 05:00 13,8 °C 12,6 °C 13,9 °C 87 % 1010,4 hPa 0,0 l/m² 1,8 km/h (1 Bft) N-NW 0,20 h 0,0 UV-I 25 W/m² 11,7 °C 13,8 °C 3,6 km/h (1 Bft)
05.05.2026 06:00 13,7 °C 12,6 °C 13,9 °C 88 % 1010,0 hPa 0,2 l/m² 0,8 km/h (0 Bft) N-NW 0,20 h 0,0 UV-I 41 W/m² 11,8 °C 13,7 °C 2,0 km/h (1 Bft)
05.05.2026 07:00 13,7 °C 13,2 °C 13,8 °C 89 % 1010,1 hPa 0,2 l/m² 2,2 km/h (1 Bft) NW 0,00 h 0,0 UV-I 66 W/m² 11,9 °C 13,7 °C 4,5 km/h (1 Bft)
05.05.2026 08:00 13,9 °C 13,9 °C 13,6 °C 90 % 1010,2 hPa 0,8 l/m² 4,9 km/h (1 Bft) N-NW 0,00 h 0,5 UV-I 108 W/m² 12,2 °C 13,9 °C 8,0 km/h (2 Bft)
05.05.2026 09:00 14,4 °C 15,5 °C 13,7 °C 90 % 1009,9 hPa 0,2 l/m² 4,3 km/h (1 Bft) N-NO 0,00 h 0,7 UV-I 165 W/m² 12,7 °C 14,4 °C 7,2 km/h (2 Bft)
05.05.2026 10:00 15,5 °C 19,0 °C 13,7 °C 88 % 1009,6 hPa 0,0 l/m² 4,0 km/h (1 Bft) NO 0,37 h 1,5 UV-I 333 W/m² 13,4 °C 15,5 °C 6,8 km/h (2 Bft)
05.05.2026 11:00 16,7 °C 19,8 °C 13,9 °C 83 % 1009,6 hPa 0,0 l/m² 4,0 km/h (1 Bft) N 0,07 h 1,6 UV-I 345 W/m² 13,8 °C 16,7 °C 7,2 km/h (2 Bft)
05.05.2026 12:00 17,4 °C 21,8 °C 13,9 °C 79 % 1009,6 hPa 0,0 l/m² 3,7 km/h (1 Bft) N-NW 0,00 h 1,9 UV-I 367 W/m² 13,8 °C 17,4 °C 6,4 km/h (2 Bft)
05.05.2026 13:00 18,3 °C 25,0 °C 14,0 °C 75 % 1009,1 hPa 0,0 l/m² 3,0 km/h (1 Bft) O 0,67 h 2,4 UV-I 471 W/m² 13,7 °C 18,3 °C 5,7 km/h (2 Bft)
05.05.2026 14:00 19,6 °C 28,1 °C 14,3 °C 64 % 1008,6 hPa 0,0 l/m² 4,3 km/h (1 Bft) O-SO 0,93 h 3,1 UV-I 610 W/m² 12,5 °C 19,6 °C 8,0 km/h (2 Bft)
05.05.2026 15:00 20,1 °C 25,7 °C 14,5 °C 60 % 1008,2 hPa 0,0 l/m² 3,4 km/h (1 Bft) SO 0,33 h 1,6 UV-I 355 W/m² 12,2 °C 20,1 °C 6,9 km/h (2 Bft)
05.05.2026 16:00 20,7 °C 28,1 °C 14,8 °C 60 % 1007,7 hPa 0,0 l/m² 4,4 km/h (1 Bft) O-SO 0,90 h 1,5 UV-I 478 W/m² 12,5 °C 20,7 °C 7,9 km/h (2 Bft)
05.05.2026 17:00 20,2 °C 21,8 °C 15,0 °C 59 % 1007,3 hPa 0,0 l/m² 5,4 km/h (2 Bft) O-SO 0,10 h 0,8 UV-I 191 W/m² 11,9 °C 20,2 °C 9,4 km/h (2 Bft)
05.05.2026 18:00 18,7 °C 18,9 °C 15,0 °C 70 % 1006,9 hPa 0,0 l/m² 8,5 km/h (2 Bft) NO 0,43 h 0,5 UV-I 135 W/m² 13,1 °C 18,7 °C 14,9 km/h (3 Bft)
05.05.2026 19:00 18,0 °C 17,7 °C 15,0 °C 73 % 1006,8 hPa 0,0 l/m² 7,6 km/h (2 Bft) NO 0,47 h 0,0 UV-I 90 W/m² 13,0 °C 18,0 °C 13,5 km/h (3 Bft)
05.05.2026 20:00 17,0 °C 15,4 °C 15,0 °C 75 % 1006,8 hPa 0,0 l/m² 4,6 km/h (1 Bft) O 0,50 h 0,0 UV-I 42 W/m² 12,6 °C 17,0 °C 7,9 km/h (2 Bft)
05.05.2026 21:00 16,3 °C 14,5 °C 14,8 °C 77 % 1006,6 hPa 0,0 l/m² 5,4 km/h (2 Bft) O 0,00 h 0,0 UV-I 0 W/m² 12,3 °C 16,3 °C 9,1 km/h (2 Bft)
05.05.2026 22:00 15,6 °C 13,9 °C 14,5 °C 81 % 1006,5 hPa 0,0 l/m² 7,6 km/h (2 Bft) O 0,00 h 0,0 UV-I 0 W/m² 12,3 °C 15,6 °C 12,7 km/h (3 Bft)
05.05.2026 23:00 14,6 °C 13,3 °C 14,4 °C 84 % 1006,8 hPa 0,4 l/m² 6,5 km/h (2 Bft) O 0,00 h 0,0 UV-I 0 W/m² 11,9 °C 14,6 °C 11,8 km/h (2 Bft)
06.05.2026 00:00 14,2 °C 13,3 °C 14,4 °C 86 % 1006,8 hPa 0,0 l/m² 4,9 km/h (1 Bft) O 0,00 h 0,0 UV-I 0 W/m² 11,9 °C 14,2 °C 9,7 km/h (2 Bft)
Min-Datum _ 05.05.26 04.05.26 04.05.26 04.05.26 05.05.26 - 05.05.26 - - - - 04.05.26 05.05.26 05.05.26
_ Min-Zeit 07:02 06:00 10:02 00:00 22:22 - 13:00 - - - - 00:00 07:00 07:14
Minimum _ 13,6 °C 11,7 °C 12,8 °C 47 % 1006,3 hPa - 0,0 km/h (0 Bft) - - - - 8,4 °C 13,6 °C 0,0 km/h (0 Bft)
Max-Datum _ 04.05.26 04.05.26 05.05.26 05.05.26 04.05.26 05.05.26 05.05.26 - 05.05.26 04.05.26 04.05.26 05.05.26 04.05.26 05.05.26
_ Max-Zeit 16:08 15:42 22:02 09:00 11:02 08:04 18:06 - 14:03 12:54 12:14 12:34 16:08 17:56
Maximum _ 23,3 °C 35,6 °C 15,0 °C 90 % 1013,9 hPa 0,8 l/m² 13,9 km/h
NO (3 Bft)
- 0,05 h 4,4 UV-I 1046 W/m² 14,2 °C 23,3 °C 22,5 km/h
O (4 Bft)
Durchschnitt _ 17,5 °C 18,3 °C 14,1 °C 71 % 1010,6 hPa #2,4 l/m² 4,1 km/h (1 Bft) N-NW #16:16 h 1,7 UV-I 292 W/m² 11,8 °C 17,5 °C 7,4 km/h (2 Bft)